Theta_e
312 312 312 313 313 313 313 313 313 313 313 313 313 313 313 314 314 314 315 315 315 315 316 316 316 317 319 327 332 331 323 324 319 318 329 330 329 327 324 325 327 330 335 337 340 339 338
309 310 310 311 311 311 312 312 312 312 312 312 312 312 313 313 313 314 314 315 315 316 316 316 317 317 319 334 329 328 324 327 320 319 327 328 326 326 326 326 327 332 333 333 338 338 337
309 309 310 310 310 310 310 311 311 311 312 312 312 312 312 312 313 313 313 314 315 316 316 316 317 317 318 325 328 328 323 327 324 323 328 326 326 326 327 328 330 333 333 331 334 337 337
308 309 309 310 310 310 310 310 310 310 311 311 312 312 313 313 313 313 313 314 314 315 316 316 317 318 320 331 328 327 324 326 326 328 327 326 326 327 328 331 333 331 332 334 337 337 337
306 307 308 309 310 310 310 310 311 311 311 311 312 313 314 314 314 314 313 314 314 315 317 317 319 336 330 330 328 327 327 328 329 328 326 326 328 331 333 331 329 331 333 339 338 336 337
306 306 306 306 307 308 309 310 310 311 312 312 313 313 314 314 315 315 313 315 322 321 324 321 319 326 327 331 330 327 327 329 327 325 325 326 329 328 328 328 330 333 338 340 338 340 335
306 306 306 306 306 306 307 307 308 310 311 312 313 314 314 315 315 315 317 324 324 331 321 331 327 321 326 329 328 328 326 329 327 325 324 327 325 325 327 328 330 330 331 340 339 339 336
306 306 306 306 306 306 306 306 306 307 308 310 311 313 314 315 314 315 315 321 320 318 319 319 321 323 327 328 330 328 326 328 327 326 325 324 323 325 329 329 329 328 328 330 333 337 336
305 305 305 305 305 305 306 306 306 306 306 307 308 309 312 314 314 319 321 320 321 319 320 321 321 322 324 324 330 330 328 326 327 327 327 324 325 327 327 326 326 325 326 327 330 330 332
305 304 304 305 305 305 305 305 306 306 306 306 306 307 308 310 313 319 320 320 318 319 320 323 322 323 323 324 324 328 327 325 326 327 328 328 328 329 328 326 325 322 325 326 329 329 328
304 304 304 304 304 304 305 305 305 305 306 306 307 307 307 309 313 317 318 319 317 319 326 327 324 325 325 324 324 324 327 326 326 327 329 329 330 329 329 327 326 323 325 325 331 328 327
303 303 304 304 304 304 305 305 305 306 306 306 306 307 307 308 311 315 317 317 318 321 325 325 324 323 323 323 323 324 326 327 327 328 328 330 330 328 326 327 326 327 327 327 330 327 325
303 303 303 303 303 304 305 305 306 306 306 307 307 306 307 307 313 317 317 317 318 322 324 323 323 323 322 322 322 323 328 328 328 329 329 330 329 329 329 328 326 327 326 325 328 329 328
303 304 304 304 304 304 305 305 306 306 306 306 307 307 308 308 309 314 316 317 321 323 321 323 323 324 324 323 323 323 323 328 328 328 328 329 330 330 328 327 326 327 325 326 331 334 335
303 303 303 304 304 304 304 305 305 307 307 306 306 307 309 311 309 315 317 318 320 322 324 323 323 323 323 324 323 324 322 323 323 326 327 330 332 332 330 328 326 326 329 326 327 328 329
302 302 302 304 304 304 304 305 306 306 307 307 306 309 309 316 314 314 317 318 319 320 320 321 322 323 323 323 321 322 324 324 325 326 327 327 330 331 332 329 327 326 327 327 326 328 331
302 302 302 303 304 304 304 305 305 306 307 307 308 318 320 318 316 315 316 317 318 318 319 321 321 321 322 323 322 322 325 326 327 327 327 327 327 329 330 331 330 329 327 326 326 327 327
301 302 303 302 303 304 305 304 304 305 307 307 311 318 317 317 317 316 316 317 317 318 318 319 321 320 320 321 321 323 325 326 327 328 327 327 330 330 330 329 329 328 327 326 327 330 334
300 301 303 302 302 303 304 304 303 304 305 306 311 317 318 317 318 317 316 316 317 318 319 319 321 321 320 319 322 326 327 327 327 328 330 332 326 328 328 329 329 328 328 329 331 332 331
299 300 300 300 300 301 302 303 303 304 304 306 312 320 318 319 319 319 319 319 319 318 318 319 320 321 320 319 320 325 324 327 327 331 329 331 334 326 327 334 334 334 332 328 328 329 328
300 301 300 299 302 303 301 302 303 304 305 307 315 320 317 321 320 321 321 319 319 321 323 320 321 321 320 320 320 322 323 323 325 328 328 330 334 336 334 334 331 334 333 334 331 328 332
300 301 300 301 301 301 300 300 303 304 307 312 314 314 314 316 318 320 321 324 323 320 322 323 321 320 320 321 324 324 324 325 330 328 329 330 335 337 337 336 335 335 335 336 334 330 328
299 300 300 300 300 300 299 299 301 301 304 309 309 310 312 314 316 317 320 321 322 322 319 322 323 320 319 320 327 327 327 326 330 336 334 334 332 339 336 337 337 335 337 339 338 335 333
298 300 300 299 299 298 296 297 299 300 300 305 308 308 312 315 315 316 319 321 323 324 325 324 322 324 324 326 326 327 326 326 329 331 334 341 344 336 336 339 341 335 337 336 337 341 341
296 298 299 297 296 296 295 295 297 300 298 305 306 307 310 314 314 316 319 318 322 323 325 325 323 324 324 325 326 328 328 328 329 329 330 336 340 340 342 339 338 336 339 336 340 346 341
294 294 294 294 295 295 295 297 297 298 299 298 305 305 307 311 314 313 316 318 320 321 324 326 325 324 323 324 325 329 330 329 331 330 328 329 336 338 338 341 342 336 336 335 338 345 345
294 295 295 295 296 297 295 296 297 295 297 301 303 304 305 308 310 311 316 314 315 317 322 325 325 327 323 323 324 325 325 326 330 331 329 329 332 338 336 338 336 335 336 337 339 347 347
294 296 298 298 296 295 294 295 297 294 293 297 303 303 302 304 305 306 309 311 312 316 322 321 326 325 326 325 323 324 324 325 328 330 332 331 329 329 334 335 334 348 343 346 348 347 348
295 296 295 295 294 294 294 294 294 293 292 296 302 302 300 301 304 307 307 308 307 309 312 319 321 322 327 328 326 327 328 333 337 337 338 340 339 342 339 343 342 343 347 345 347 344 344
Wind_Speed
5 6 6 7 7 7 7 8 8 8 9 10 10 10 10 10 11 11 12 12 11 11 11 10 8 7 7 4 6 7 2 2 5 9 10 7 9 12 7 9 17 11 10 16 21 19 6
7 7 6 7 7 8 8 8 9 9 9 10 10 11 11 11 11 11 12 11 11 11 11 10 8 6 5 4 6 7 5 4 5 10 7 6 10 11 15 16 11 20 20 11 13 15 7
8 8 8 7 8 8 8 8 9 9 9 10 10 11 11 12 12 12 12 11 11 11 11 9 7 8 8 8 7 6 6 5 5 8 5 5 13 15 21 9 19 21 10 9 15 20 10
9 9 9 8 8 8 8 8 9 9 9 10 10 11 11 12 12 13 13 12 11 11 11 8 7 8 6 6 8 9 6 5 5 1 7 12 10 16 16 20 18 10 8 5 11 15 11
10 10 10 10 8 8 8 8 9 9 9 10 10 11 11 12 13 13 13 14 12 12 10 8 4 4 7 11 16 13 8 10 7 10 10 9 9 13 16 7 6 6 1 7 16 22 15
10 9 10 9 9 10 9 10 10 11 10 10 10 11 11 11 13 14 13 15 12 9 9 8 8 6 12 13 12 17 15 11 9 7 8 6 4 4 5 3 6 9 5 3 9 8 12
11 11 10 10 10 9 9 10 11 12 12 12 12 11 11 11 11 14 11 14 7 2 10 11 7 9 11 7 11 15 16 13 10 10 6 10 3 7 11 11 14 11 9 10 11 17 4
10 10 11 11 11 10 11 12 12 13 14 14 14 14 13 11 10 10 9 11 6 7 13 20 25 27 25 14 10 13 17 14 12 8 10 5 9 13 15 15 12 9 7 7 4 20 13
9 10 11 11 11 12 12 12 13 14 15 16 16 16 16 13 10 4 8 7 11 11 6 16 24 24 25 20 15 22 23 23 8 9 9 9 14 12 14 11 10 8 6 8 7 9 10
10 11 11 11 11 12 13 14 14 15 15 16 16 14 15 13 7 5 4 3 8 6 3 7 10 15 24 22 15 20 30 25 7 13 12 9 17 17 10 6 7 8 10 12 10 2 3
11 11 11 11 12 12 13 14 15 16 16 16 16 14 10 9 7 6 2 6 8 5 4 5 9 7 16 24 6 24 29 27 15 13 7 9 9 10 10 9 8 10 10 9 5 7 7
13 12 12 13 13 13 14 15 16 17 18 17 15 15 10 9 10 6 6 9 4 0 7 4 9 7 7 12 20 18 26 24 19 11 12 14 22 11 9 9 11 8 6 8 2 3 4
15 14 14 14 14 14 15 16 18 19 20 19 15 14 13 12 7 3 2 1 1 4 7 6 7 12 10 10 14 11 13 12 8 6 9 13 15 13 4 4 11 6 2 4 5 3 7
16 16 14 14 15 15 16 18 19 20 21 21 16 15 13 13 14 5 2 1 5 8 11 11 6 13 14 13 15 16 10 12 12 11 6 8 8 12 11 10 9 7 9 6 5 3 4
17 18 18 17 17 16 17 18 19 21 20 23 16 10 13 6 13 12 3 3 7 5 8 14 15 7 7 14 13 17 16 14 12 11 9 4 12 12 17 9 11 7 2 11 4 4 3
17 17 17 18 19 19 18 20 21 22 20 19 17 12 15 9 10 16 2 5 7 11 16 14 13 7 5 7 8 7 11 14 14 17 18 10 10 9 11 14 8 7 5 2 2 3 6
17 17 17 19 21 22 20 21 22 23 19 14 11 7 3 19 13 12 4 6 8 21 19 6 12 10 11 8 10 12 10 7 18 15 15 15 7 13 7 2 9 2 3 3 2 4 5
17 16 17 17 19 21 21 21 22 23 21 15 1 3 15 26 8 7 7 5 9 21 30 16 8 7 9 14 13 14 11 10 14 18 12 11 7 5 10 14 6 5 8 8 5 9 1
17 16 17 18 19 20 21 20 20 21 23 22 9 9 15 17 4 7 9 17 23 19 19 16 9 6 9 10 7 8 11 8 19 9 6 1 3 1 9 8 5 6 8 6 6 4 3
16 16 18 19 19 19 20 20 19 18 17 14 5 3 10 19 15 10 12 13 15 24 22 25 14 8 8 9 9 8 12 7 22 4 8 8 2 8 7 6 2 3 8 8 6 4 6
13 17 19 16 18 20 20 20 20 17 13 10 3 3 9 3 4 9 9 12 16 17 19 24 6 6 10 7 8 9 11 10 15 3 3 3 1 3 8 7 13 11 10 8 7 9 7
14 17 17 15 17 20 22 21 20 19 11 7 9 8 12 16 14 10 9 8 14 19 16 5 6 10 14 8 8 8 8 6 5 10 3 2 3 4 7 11 15 6 21 10 11 12 8
15 17 16 17 19 21 22 20 19 19 13 5 15 9 6 10 9 7 8 12 15 14 24 21 15 12 12 14 11 14 17 15 7 2 3 3 3 1 5 9 12 8 3 6 4 2 3
15 14 16 18 20 20 20 19 15 14 14 8 12 11 6 6 7 8 15 20 15 19 13 15 22 9 5 4 8 11 16 14 11 8 2 1 2 2 3 6 7 7 2 7 1 6 8
15 13 16 18 19 18 18 18 16 11 9 6 11 5 6 6 14 13 18 16 20 23 15 15 10 8 10 3 2 3 5 5 6 9 9 2 2 1 3 4 7 8 2 5 6 8 10
13 14 16 16 15 15 15 15 15 10 8 7 5 5 4 8 3 13 14 16 7 8 8 12 16 9 9 2 0 3 3 2 5 4 7 6 2 5 2 1 4 6 3 3 4 4 1
15 14 13 13 13 13 13 14 15 11 7 7 2 10 4 8 13 12 4 9 13 11 5 9 15 11 4 1 2 3 5 6 7 7 7 6 3 6 5 4 5 7 4 7 6 5 11
12 11 13 12 14 14 13 13 13 12 8 2 1 6 6 6 24 20 10 8 10 7 3 15 11 10 4 2 3 3 3 6 6 6 8 9 6 5 2 5 8 18 6 2 9 16 24
12 13 14 15 14 13 12 12 13 13 10 2 6 7 10 11 16 11 18 18 21 11 7 5 2 6 6 4 5 3 3 5 2 1 8 4 3 3 2 1 6 16 16 14 21 26 21
Wind_Direction
346 343 338 338 340 341 343 339 337 338 335 336 337 336 335 337 336 335 336 338 339 338 338 335 331 330 333 301 270 296 267 247 205 188 164 207 235 266 251 262 283 266 254 263 240 265 272
330 328 327 325 328 328 330 332 329 329 331 330 329 329 330 332 330 329 328 331 330 331 331 329 323 317 316 269 277 276 227 216 209 192 172 226 241 250 275 286 292 299 300 313 283 289 269
325 325 324 323 321 320 324 324 322 322 325 323 325 328 329 330 328 326 324 324 320 321 323 318 312 310 290 241 273 290 214 212 207 179 204 255 262 281 299 307 283 305 281 302 12 357 303
328 325 321 323 322 323 321 320 317 317 318 320 321 325 328 330 329 328 324 317 314 310 311 305 302 305 267 171 244 280 185 141 195 28 257 276 266 283 290 291 303 306 306 15 326 352 316
334 332 328 325 324 319 322 320 310 312 315 315 317 323 327 332 333 333 327 314 306 300 298 290 258 304 271 213 219 217 220 189 202 228 261 254 273 276 280 277 295 265 218 56 347 308 298
359 350 337 332 324 323 315 314 311 309 309 308 310 314 320 329 335 337 332 317 310 294 282 269 233 289 228 228 220 193 200 200 191 227 256 250 284 247 287 249 247 277 110 166 212 264 258
10 14 10 1 350 335 321 317 312 308 307 306 303 302 307 319 334 338 349 357 351 10 316 238 235 254 295 157 146 189 190 206 197 217 227 212 186 238 241 235 242 264 283 181 221 237 294
6 9 11 12 9 1 350 338 324 315 310 306 302 298 297 306 327 334 336 359 44 336 295 274 259 263 257 244 180 198 186 194 195 217 213 282 236 239 255 273 283 303 321 302 251 215 192
10 8 6 9 6 2 355 347 340 332 323 312 306 301 294 293 313 326 329 335 315 349 271 282 244 231 233 234 205 200 190 203 196 225 231 211 248 243 231 262 292 290 272 281 261 303 202
10 15 12 6 2 358 352 348 342 337 330 320 311 308 302 291 281 258 360 18 336 350 300 265 204 221 216 219 227 229 194 189 226 218 222 233 249 260 262 244 254 274 270 276 266 266 251
14 14 7 3 358 353 350 347 344 339 333 328 317 308 304 292 245 233 341 311 335 334 334 226 178 169 184 195 236 217 201 193 213 240 200 246 254 252 246 257 248 243 270 290 360 14 23
15 6 358 355 353 349 345 343 342 338 332 327 322 307 293 275 244 274 294 327 330 319 246 258 134 158 164 192 233 278 178 192 223 248 253 256 257 259 225 237 249 263 295 337 350 53 326
1 356 353 349 345 342 338 337 336 335 329 321 314 300 279 247 205 208 210 99 119 231 286 238 166 172 206 190 225 237 171 190 207 209 250 274 269 258 230 318 309 218 48 345 336 340 233
355 352 347 344 341 337 335 335 335 336 332 320 310 292 273 244 215 210 141 281 232 240 243 309 278 207 188 202 209 222 195 196 205 231 266 224 273 234 207 190 214 234 157 164 243 242 278
351 353 352 348 344 339 337 338 338 340 338 320 318 296 262 205 202 178 215 210 204 227 278 344 335 305 225 200 209 201 210 196 208 189 219 266 243 262 217 194 173 267 211 203 214 276 355
353 355 356 356 356 349 342 340 341 343 344 323 322 313 255 153 173 177 200 258 243 280 313 327 312 308 271 267 287 253 204 199 213 213 199 251 277 283 297 194 186 169 241 7 332 269 272
354 354 353 353 356 355 350 346 343 343 351 339 326 306 280 158 170 173 214 236 275 277 279 279 314 318 321 321 318 299 213 218 208 218 199 219 186 276 341 315 169 166 240 287 164 171 194
353 357 356 349 350 352 353 354 351 346 353 356 352 267 153 158 171 203 232 251 269 287 296 297 256 289 299 304 307 312 297 182 236 209 206 203 187 209 259 277 205 184 201 194 144 281 163
352 350 352 352 346 348 354 359 355 352 350 355 337 290 177 180 220 236 240 241 258 270 272 277 280 217 270 281 304 303 324 318 344 317 147 174 181 59 318 327 236 200 241 215 180 131 250
356 356 349 353 354 348 349 357 356 352 341 344 322 275 231 210 228 263 284 275 258 245 254 271 275 272 270 268 285 282 303 322 322 101 42 60 31 162 212 220 183 291 258 234 180 138 235
356 352 352 355 356 350 353 353 356 352 339 343 266 323 15 342 259 329 290 266 291 289 287 235 268 270 280 248 274 278 285 291 300 250 72 72 305 330 304 287 278 289 234 268 263 229 170
349 349 352 351 344 343 347 351 356 359 12 31 354 356 331 304 325 319 302 292 274 272 280 262 183 251 268 262 228 255 272 285 267 324 301 137 269 306 304 306 303 344 293 239 245 222 227
344 343 341 339 338 338 342 345 353 4 7 30 359 327 312 302 315 305 288 287 300 298 274 288 289 211 242 267 342 321 305 291 299 18 304 221 141 321 268 296 308 302 253 356 307 344 166
329 329 333 335 335 334 339 343 346 2 12 11 3 339 292 296 305 295 314 328 335 315 301 295 285 322 220 34 341 315 286 310 316 301 293 272 60 150 261 311 276 250 350 299 348 357 85
318 307 320 329 334 340 345 345 344 350 3 22 16 340 320 298 321 310 349 327 330 346 343 315 260 43 0 6 45 302 313 329 309 306 311 220 123 312 140 248 281 297 104 25 356 21 122
329 319 319 323 329 338 345 347 347 344 350 351 30 322 301 305 185 345 314 354 357 344 325 338 323 343 32 338 354 215 232 231 227 266 288 300 213 138 127 265 276 264 179 128 322 39 223
329 335 343 347 344 344 343 347 347 347 352 21 69 336 348 279 277 358 332 335 323 330 306 335 340 332 118 331 315 257 231 269 244 229 225 248 230 208 198 219 282 293 204 191 156 184 153
332 339 334 331 332 338 336 339 342 344 339 355 230 319 13 281 276 281 298 306 322 348 351 329 320 7 300 219 198 252 267 251 245 246 240 194 210 222 222 195 256 357 358 99 128 97 126
321 322 321 324 328 331 332 335 337 338 341 353 123 271 282 265 258 261 272 263 262 250 277 339 165 338 312 324 0 316 300 1 9 279 345 59 79 341 75 113 354 22 58 66 124 121 128